Location: Drocourt
(49.0571°N, 1.7669°E)
Time: 23:23:43
(UTC+00:00)

SR - Pass Details

Date: 13 April 2024
Orbit: 579 x 859 km, 66.7° (Epoch: 25 May)

Event Time Altitude Azimuth Distance (km) Brightness Sun altitude
Rises 05:52:43 0° 270° (W) 3,303 ? 6.9°
Reaches altitude 10° 05:56:00 10° 288° (WNW) 2,323 ? 7.4°
Maximum altitude 05:59:35 18° 331° (NNW) 1,778 ? 8.0°
Drops below altitude 10° 06:03:00 10° 14° (NNE) 2,200 ? 8.5°
Sets 06:06:00 0° 34° (NE) 3,061 ? 9.0°
